Hourly Data Report for October 01, 2015

All times are specified in Local Standard Time (LST). Add 1 hour to adjust for Daylight Saving Time where and when it is observed.

WINNIPEG A CS
MANITOBA

49°55'00.000" N
97°14'58.000" W
238.70 m
502S001
71849
XWG

Download Data

Hourly Data (October 2015)
Hourly Data Report for October 1, 2015
Temp Definition
°C
Dew Point Temp Definition
°C
Rel Hum Definition
%
Wind Dir Definition
10's deg

Wind Spd Definition
km/h
Visibility Definition
km
Stn Press Definition
kPa
Hmdx Definition


Wind Chill Definition


Weather Definition


TIME
00:00 14.7 5.9 55 16 28   99.48     LegendNANA
01:00 13.7 6.0 60 16 30   99.56     LegendNANA
02:00 13.1 5.9 62 17 26   99.61     LegendNANA
03:00 11.5 7.2 75 18 23   99.67     LegendNANA
04:00 11.4 6.2 70 16 18   99.66     LegendNANA
05:00 11.5 5.0 64 15 23   99.69     LegendNANA
06:00 11.5 3.9 60 15 29   99.74     LegendNANA
07:00 10.8 4.4 65 14 23   99.80     LegendNANA
08:00 11.4 4.8 64 15 26   99.86     LegendNANA
09:00 12.1 5.2 63 14 26   99.94     LegendNANA
10:00 13.4 4.7 56 15 28   99.99     LegendNANA
11:00 17.0 5.0 45 15 28   100.02     LegendNANA
12:00 17.9 3.9 39 14 32   100.06     LegendNANA
13:00 19.3 4.1 37 15 28   100.07     LegendNANA
14:00 19.3 1.3 30 17 31   100.06     LegendNANA
15:00 19.7 2.8 33 15 27   100.07     LegendNANA
16:00 19.5 2.9 33 17 23   100.06     LegendNANA
17:00 18.9 3.1 35 16 21   100.07     LegendNANA
18:00 16.0 3.9 44 14 17   100.10     LegendNANA
19:00 15.4 3.9 46 13 18   100.15     LegendNANA
20:00 15.2 4.1 47 13 25   100.19     LegendNANA
21:00 14.1 4.0 50 13 24   100.22     LegendNANA
22:00 12.6 4.2 57 13 22   100.25     LegendNANA
23:00 11.5 4.0 60 13 17   100.30     LegendNANA

Notes on Data Quality.

Legend

  • E = Estimated
  • M = Missing
  • NA = Not Available
  • ‡ = Partner data that is not subject to review by the National Climate Archives
Date modified: